Погода в Миандоабе

Иран     36°57′52″N   46°05′36″E
темп.,
°C
ветер,
м/с
пор.,
м/с
влажн.,
%
обл.,
%
осадки,
мм/ч
давл.,
гПа
погр.,
м
19 мая, ср
ср1901:30+16юв33340 0.0 101234
04:30+15ююв22360 0.0 101221
07:30+17ююв11370 0.0 101334
10:30+23ююв01230 0.0 1012826
13:30+28сз24150 0.0 10102072
16:30+31сз35110 0.0 10073244
19:30+27зсз47210 0.0 1008285
22:30+20ююв12340 0.0 101112
20 мая, чт
чт2001:30+18ююв33310 0.0 101223
04:30+17юв12310 0.0 101215
07:30+18ююв11320 0.0 101431
10:30+25сз11200 0.0 1013776
13:30+30сз34150 0.0 10112551
16:30+31ссз54140 0.0 10102365
19:30+28с34180 0.0 1011103
22:30+21зюз22300 0.0 101311
21 мая, пт
пт2101:30+19ссв11300 0.0 101411
04:30+18в00310 0.0 101411
07:30+19ссв11350 0.0 101526
10:30+26зсз11210 0.0 1013706
13:30+32сз23140 0.0 10102312
16:30+32сз74170 0.0 10081262
19:30+23ю1438100 0.0 1013242
22:30+23всв6113380 0.0 1013304
22 мая, сб
сб2201:30+20ссв1439100 0.0 101283
04:30+18з224894 0.0 101219
07:30+19юз014727 0.0 101250
10:30+27вюв35250 0.0 1010975
13:30+33зюз36134 0.0 10063847
16:30+31вюв4416100 0.0 1004607
19:30+23ссз584027 0.0 1007326
22:30+21всв583881 0.0 1008178
23 мая, вс
вс2301:30+18юв13470 0.0 100859
04:30+18юв024974 0.0 100939
07:30+19ююв344566 0.0 1009150
10:30+27ююв34233 0.0 1006935
13:30+34ю691254 0.0 10034711
16:30+34ююз98100 0.0 10024135
19:30+29юз69140 0.0 1003728
22:30+22юв452626 0.0 100857